Location: Kalberh�ni
(46.4610°N, 7.2453°E)
Time: 08:00:58
(UTC+00:00)

Cosmos 1455 - Pass Details

Date: 29 October 2021
Orbit: 496 x 520 km, 82.5° (Epoch: 27 November)

Event Time Altitude Azimuth Distance (km) Brightness Sun altitude
Rises 04:03:16 0° 5° (N) 2,598 5.9 -22.0°
Reaches altitude 10° 04:05:53 10° 24° (NNE) 1,707 5.1 -21.6°
Maximum altitude 04:08:36 19° 70° (ENE) 1,243 5.0 -21.1°
Drops below altitude 10° 04:11:18 10° 117° (ESE) 1,696 5.7 -20.6°
Sets 04:13:52 0° 136° (SE) 2,574 6.4 -20.2°
